Location: Wildcat Hills Observatory
(41.6350°N, 103.6812°W)
Time: 22:32:30
(UTC-06:00)

Cosmos 1626 - Pass Details

Date: 23 June 2018
Orbit: 493 x 499 km, 82.5° (Epoch: 17 July)

Event Time Altitude Azimuth Distance (km) Brightness Sun altitude
Exits shadow 23:40:49 23° 255° (WSW) 1,099 3.8 -22.6°
Maximum altitude 23:41:54 27° 284° (WNW) 995 3.9 -22.7°
Drops below altitude 10° 23:45:07 10° 344° (NNW) 1,709 6.0 -22.8°
Sets 23:47:29 0° 357° (N) 2,596 7.1 -23.0°
